Location: Recife
(8.0585°S, 34.8848°W)
Time: 10:45:37
(UTC-03:00)

Explorer 11/Cluster Stage 4 - Pass Details

Date: 19 April 2026
Orbit: 463 x 1174 km, 28.8° (Epoch: 19 May)

Event Time Altitude Azimuth Distance (km) Brightness Sun altitude
Exits shadow 03:35:56 40° 122° (ESE) 799 6.9 -26.6°
Drops below altitude 10° 03:39:23 10° 78° (ENE) 1,906 9.6 -25.8°
Sets 03:42:00 0° 72° (ENE) 2,922 10.8 -25.2°
